Time,TemperatureF,DewpointF,PressureIn,WindDirection,WindDirectionDegrees,WindSpeedMPH,WindSpeedGustMPH,Humidity,HourlyPrecipIn,Conditions,Clouds,dailyrainin,SolarRadiationWatts/m^2,SoftwareType,DateUTC
2013-04-08 00:03:00,54.0,48.0,-100.00,SSE,147,1.0,3.0,79,0.00,,,0.00,0.000000,,2013-04-08 04:03:00,
2013-04-08 00:34:00,53.0,47.0,-100.00,ESE,119,0.0,3.0,80,0.00,,,0.00,0.000000,,2013-04-08 04:34:00,
2013-04-08 00:45:00,53.0,47.0,-100.00,ESE,119,0.0,3.0,80,0.00,,,0.00,0.000000,,2013-04-08 04:45:00,
2013-04-08 00:53:00,53.0,47.0,-100.00,ESE,119,0.0,3.0,80,0.00,,,0.00,0.000000,,2013-04-08 04:53:00,
2013-04-08 01:03:00,53.0,47.0,-100.00,ESE,119,0.0,3.0,80,0.00,,,0.00,0.000000,,2013-04-08 05:03:00,
2013-04-08 01:42:00,51.0,46.0,-100.00,ESE,109,0.0,2.0,84,0.00,,,0.00,0.000000,,2013-04-08 05:42:00,
2013-04-08 01:53:00,51.0,46.0,-100.00,ESE,109,0.0,2.0,84,0.00,,,0.00,0.000000,,2013-04-08 05:53:00,
2013-04-08 02:02:00,51.0,46.0,-100.00,ESE,109,0.0,2.0,84,0.00,,,0.00,0.000000,,2013-04-08 06:02:00,
2013-04-08 02:32:00,49.0,46.0,-100.00,SE,131,0.0,3.0,88,0.00,,,0.00,0.000000,,2013-04-08 06:32:00,
2013-04-08 02:43:00,49.0,46.0,-100.00,SE,131,0.0,3.0,88,0.00,,,0.00,0.000000,,2013-04-08 06:43:00,
2013-04-08 02:52:00,49.0,46.0,-100.00,SE,131,0.0,3.0,88,0.00,,,0.00,0.000000,,2013-04-08 06:52:00,
2013-04-08 03:02:00,49.0,46.0,-100.00,SE,131,0.0,3.0,88,0.00,,,0.00,0.000000,,2013-04-08 07:02:00,
2013-04-08 04:43:00,49.0,46.0,-100.00,South,174,0.0,0.0,90,-99.99,,,0.00,0.000000,,2013-04-08 08:43:00,
2013-04-08 04:52:00,49.0,46.0,-100.00,South,174,0.0,0.0,90,-99.99,,,0.00,0.000000,,2013-04-08 08:52:00,
2013-04-08 05:03:00,49.0,46.0,-100.00,South,174,0.0,0.0,90,-99.99,,,0.00,0.000000,,2013-04-08 09:03:00,
2013-04-08 05:43:00,48.0,45.0,-100.00,North,353,0.0,2.0,90,0.00,,,0.00,0.000000,,2013-04-08 09:43:00,
2013-04-08 05:53:00,48.0,45.0,-100.00,North,353,0.0,2.0,90,0.00,,,0.00,0.000000,,2013-04-08 09:53:00,
2013-04-08 06:03:00,48.0,45.0,-100.00,North,353,0.0,2.0,90,0.00,,,0.00,0.000000,,2013-04-08 10:03:00,
2013-04-08 06:33:00,48.0,46.0,-100.00,East,80,0.0,2.0,93,0.00,,,0.00,0.000000,,2013-04-08 10:33:00,
2013-04-08 06:43:00,48.0,46.0,-100.00,East,80,0.0,2.0,93,0.00,,,0.00,0.000000,,2013-04-08 10:43:00,
2013-04-08 06:53:00,48.0,46.0,-100.00,East,80,0.0,2.0,93,0.00,,,0.00,0.000000,,2013-04-08 10:53:00,
2013-04-08 07:03:00,48.0,46.0,-100.00,East,80,0.0,2.0,93,0.00,,,0.00,0.000000,,2013-04-08 11:03:00,
2013-04-08 07:33:00,47.0,45.0,-100.00,East,101,0.0,2.0,94,0.00,,,0.00,0.000000,,2013-04-08 11:33:00,
2013-04-08 07:43:00,47.0,45.0,-100.00,East,101,0.0,2.0,94,0.00,,,0.00,0.000000,,2013-04-08 11:43:00,
2013-04-08 07:53:00,47.0,45.0,-100.00,East,101,0.0,2.0,94,0.00,,,0.00,0.000000,,2013-04-08 11:53:00,
2013-04-08 08:03:00,47.0,45.0,-100.00,East,101,0.0,2.0,94,0.00,,,0.00,0.000000,,2013-04-08 12:03:00,
2013-04-08 08:33:00,47.0,46.0,-100.00,NW,326,0.0,2.0,95,0.00,,,0.00,18.000000,,2013-04-08 12:33:00,
2013-04-08 08:43:00,47.0,46.0,-100.00,NW,326,0.0,2.0,95,0.00,,,0.00,18.000000,,2013-04-08 12:43:00,
2013-04-08 08:53:00,47.0,46.0,-100.00,NW,326,0.0,2.0,95,0.00,,,0.00,18.000000,,2013-04-08 12:53:00,
2013-04-08 09:03:00,47.0,46.0,-100.00,NW,326,0.0,2.0,95,0.00,,,0.00,18.000000,,2013-04-08 13:03:00,
2013-04-08 09:33:00,56.0,50.0,-100.00,NNW,340,2.0,3.0,79,0.00,,,0.00,119.000000,,2013-04-08 13:33:00,
2013-04-08 09:43:00,56.0,50.0,-100.00,NNW,340,2.0,3.0,79,0.00,,,0.00,119.000000,,2013-04-08 13:43:00,
2013-04-08 09:53:00,56.0,50.0,-100.00,NNW,340,2.0,3.0,79,0.00,,,0.00,119.000000,,2013-04-08 13:53:00,
2013-04-08 10:03:00,56.0,50.0,-100.00,NNW,340,2.0,3.0,79,0.00,,,0.00,119.000000,,2013-04-08 14:03:00,
2013-04-08 10:33:00,66.0,54.0,-100.00,SW,220,5.0,7.0,65,0.00,,,0.00,278.000000,,2013-04-08 14:33:00,
2013-04-08 10:43:00,66.0,54.0,-100.00,SW,220,5.0,7.0,65,0.00,,,0.00,278.000000,,2013-04-08 14:43:00,
2013-04-08 10:52:00,66.0,54.0,-100.00,SW,220,5.0,7.0,65,0.00,,,0.00,278.000000,,2013-04-08 14:52:00,
2013-04-08 11:02:00,66.0,54.0,-100.00,SW,220,5.0,7.0,65,0.00,,,0.00,278.000000,,2013-04-08 15:02:00,
2013-04-08 11:35:00,70.0,55.0,-100.00,SW,227,8.0,15.0,59,0.00,,,0.00,502.000000,,2013-04-08 15:35:00,
2013-04-08 11:43:00,70.0,55.0,-100.00,SW,227,8.0,15.0,59,0.00,,,0.00,502.000000,,2013-04-08 15:43:00,
2013-04-08 11:53:00,70.0,55.0,-100.00,SW,227,8.0,15.0,59,0.00,,,0.00,502.000000,,2013-04-08 15:53:00,
2013-04-08 12:03:00,70.0,55.0,-100.00,SW,227,8.0,15.0,59,0.00,,,0.00,502.000000,,2013-04-08 16:03:00,
2013-04-08 12:42:00,73.0,55.0,-100.00,SSW,212,10.0,16.0,54,0.00,,,0.00,500.000000,,2013-04-08 16:42:00,
2013-04-08 13:03:00,73.0,55.0,-100.00,SSW,212,10.0,16.0,54,0.00,,,0.00,500.000000,,2013-04-08 17:03:00,
2013-04-08 13:32:00,72.0,53.0,-100.00,SSW,196,13.0,20.0,52,0.00,,,0.00,440.000000,,2013-04-08 17:32:00,
2013-04-08 13:45:00,72.0,53.0,-100.00,SSW,196,13.0,20.0,52,0.00,,,0.00,440.000000,,2013-04-08 17:45:00,
2013-04-08 13:53:00,72.0,53.0,-100.00,SSW,196,13.0,20.0,52,0.00,,,0.00,440.000000,,2013-04-08 17:53:00,
2013-04-08 14:02:00,72.0,53.0,-100.00,SSW,196,13.0,20.0,52,0.00,,,0.00,440.000000,,2013-04-08 18:02:00,
2013-04-08 14:32:00,75.0,55.0,-100.00,SSW,197,10.0,20.0,49,0.00,,,0.00,370.000000,,2013-04-08 18:32:00,
2013-04-08 14:42:00,75.0,55.0,-100.00,SSW,197,10.0,20.0,49,0.00,,,0.00,370.000000,,2013-04-08 18:42:00,
2013-04-08 14:53:00,75.0,55.0,-100.00,SSW,197,10.0,20.0,49,0.00,,,0.00,370.000000,,2013-04-08 18:53:00,
2013-04-08 15:03:00,75.0,55.0,-100.00,SSW,197,10.0,20.0,49,0.00,,,0.00,370.000000,,2013-04-08 19:03:00,
2013-04-08 15:34:00,74.0,52.0,-100.00,SW,216,12.0,22.0,46,0.00,,,0.00,451.000000,,2013-04-08 19:34:00,
2013-04-08 15:43:00,74.0,52.0,-100.00,SW,216,12.0,22.0,46,0.00,,,0.00,451.000000,,2013-04-08 19:43:00,
2013-04-08 15:53:00,74.0,52.0,-100.00,SW,216,12.0,22.0,46,0.00,,,0.00,451.000000,,2013-04-08 19:53:00,
2013-04-08 16:02:00,74.0,52.0,-100.00,SW,216,12.0,22.0,46,0.00,,,0.00,451.000000,,2013-04-08 20:02:00,
2013-04-08 16:33:00,77.0,53.0,-100.00,SSW,200,12.0,19.0,43,0.00,,,0.00,459.000000,,2013-04-08 20:33:00,
2013-04-08 16:43:00,77.0,53.0,-100.00,SSW,200,12.0,19.0,43,0.00,,,0.00,459.000000,,2013-04-08 20:43:00,
2013-04-08 16:52:00,77.0,53.0,-100.00,SSW,200,12.0,19.0,43,0.00,,,0.00,459.000000,,2013-04-08 20:52:00,
2013-04-08 17:02:00,77.0,53.0,-100.00,SSW,200,12.0,19.0,43,0.00,,,0.00,459.000000,,2013-04-08 21:02:00,
2013-04-08 17:33:00,77.0,51.0,-100.00,SW,218,11.0,21.0,41,0.00,,,0.00,469.000000,,2013-04-08 21:33:00,
2013-04-08 17:43:00,77.0,51.0,-100.00,SW,218,11.0,21.0,41,0.00,,,0.00,469.000000,,2013-04-08 21:43:00,
2013-04-08 17:53:00,77.0,51.0,-100.00,SW,218,11.0,21.0,41,0.00,,,0.00,469.000000,,2013-04-08 21:53:00,
2013-04-08 18:03:00,77.0,51.0,-100.00,SW,218,11.0,21.0,41,0.00,,,0.00,469.000000,,2013-04-08 22:03:00,
2013-04-08 18:44:00,77.0,52.0,-100.00,SSW,210,11.0,18.0,42,0.00,,,0.00,379.000000,,2013-04-08 22:44:00,
2013-04-08 18:53:00,77.0,52.0,-100.00,SSW,210,11.0,18.0,42,0.00,,,0.00,379.000000,,2013-04-08 22:53:00,
2013-04-08 19:03:00,77.0,52.0,-100.00,SSW,210,11.0,18.0,42,0.00,,,0.00,379.000000,,2013-04-08 23:03:00,
2013-04-08 19:32:00,75.0,50.0,-100.00,SSW,211,10.0,21.0,41,0.00,,,0.00,191.000000,,2013-04-08 23:32:00,
2013-04-08 19:43:00,75.0,50.0,-100.00,SSW,211,10.0,21.0,41,0.00,,,0.00,191.000000,,2013-04-08 23:43:00,
2013-04-08 19:52:00,75.0,50.0,-100.00,SSW,211,10.0,21.0,41,0.00,,,0.00,191.000000,,2013-04-08 23:52:00,
2013-04-08 20:02:00,75.0,50.0,-100.00,SSW,211,10.0,21.0,41,0.00,,,0.00,191.000000,,2013-04-09 00:02:00,
2013-04-08 21:34:00,71.0,50.0,-100.00,South,183,5.0,11.0,48,-99.99,,,0.00,1.000000,,2013-04-09 01:34:00,
2013-04-08 21:42:00,71.0,50.0,-100.00,South,183,5.0,11.0,48,-99.99,,,0.00,1.000000,,2013-04-09 01:42:00,
2013-04-08 21:53:00,71.0,50.0,-100.00,South,183,5.0,11.0,48,-99.99,,,0.00,1.000000,,2013-04-09 01:53:00,
2013-04-08 22:02:00,71.0,50.0,-100.00,South,183,5.0,11.0,48,-99.99,,,0.00,1.000000,,2013-04-09 02:02:00,
2013-04-08 22:33:00,67.0,50.0,-100.00,SSW,197,2.0,11.0,54,0.00,,,0.00,0.000000,,2013-04-09 02:33:00,
2013-04-08 22:44:00,67.0,50.0,-100.00,SSW,197,2.0,11.0,54,0.00,,,0.00,0.000000,,2013-04-09 02:44:00,
2013-04-08 22:52:00,67.0,50.0,-100.00,SSW,197,2.0,11.0,54,0.00,,,0.00,0.000000,,2013-04-09 02:52:00,
2013-04-08 23:02:00,67.0,50.0,-100.00,SSW,197,2.0,11.0,54,0.00,,,0.00,0.000000,,2013-04-09 03:02:00,
2013-04-08 23:33:00,61.0,51.0,-100.00,NNE,18,0.0,7.0,69,0.00,,,0.00,0.000000,,2013-04-09 03:33:00,
2013-04-08 23:43:00,61.0,51.0,-100.00,NNE,18,0.0,7.0,69,0.00,,,0.00,0.000000,,2013-04-09 03:43:00,
2013-04-08 23:53:00,61.0,51.0,-100.00,NNE,18,0.0,7.0,69,0.00,,,0.00,0.000000,,2013-04-09 03:53:00,